Year,Month,Day,Hour,Minute,Value (Times are PST for windspeed in km/hr)
2008,02,07,00,00,3.30
2008,02,07,00,01,0.30
2008,02,07,00,02,0.10
2008,02,07,00,03,2.10
2008,02,07,00,04,6.20
2008,02,07,00,05,0.90
2008,02,07,00,06,2.90
2008,02,07,00,07,1.20
2008,02,07,00,08,3.90
2008,02,07,00,09,2.40
2008,02,07,00,10,1.20
2008,02,07,00,11,1.60
2008,02,07,00,12,2.00
2008,02,07,00,13,2.10
2008,02,07,00,14,3.80
2008,02,07,00,15,2.90
2008,02,07,00,16,2.80
2008,02,07,00,17,7.20
2008,02,07,00,18,3.30
2008,02,07,00,19,2.30
2008,02,07,00,20,2.30
2008,02,07,00,21,2.80
2008,02,07,00,22,2.80
2008,02,07,00,23,3.00
2008,02,07,00,24,4.40
2008,02,07,00,25,1.40
2008,02,07,00,26,4.90
2008,02,07,00,27,11.20
2008,02,07,00,28,4.60
2008,02,07,00,29,5.70
2008,02,07,00,30,7.40
2008,02,07,00,31,2.30
2008,02,07,00,32,5.00
2008,02,07,00,33,4.70
2008,02,07,00,34,10.60
2008,02,07,00,35,10.30
2008,02,07,00,36,7.40
2008,02,07,00,37,8.30
2008,02,07,00,38,5.40
2008,02,07,00,39,5.40
2008,02,07,00,40,4.30
2008,02,07,00,41,5.30
2008,02,07,00,42,4.50
2008,02,07,00,43,4.10
2008,02,07,00,44,6.80
2008,02,07,00,45,9.50
2008,02,07,00,46,6.70
2008,02,07,00,47,5.80
2008,02,07,00,48,6.60
2008,02,07,00,49,8.10
2008,02,07,00,50,6.00
2008,02,07,00,51,4.70
2008,02,07,00,52,7.20
2008,02,07,00,53,12.80
2008,02,07,00,54,15.30
2008,02,07,00,55,15.40
2008,02,07,00,56,24.20
2008,02,07,00,57,22.80
2008,02,07,00,58,26.60
2008,02,07,00,59,25.40
2008,02,07,01,00,21.60
2008,02,07,01,01,28.60
2008,02,07,01,02,18.70
2008,02,07,01,03,21.10
2008,02,07,01,04,26.40
2008,02,07,01,05,22.40
2008,02,07,01,06,31.10
2008,02,07,01,07,19.50
2008,02,07,01,08,22.70
2008,02,07,01,09,26.10
2008,02,07,01,10,36.10
2008,02,07,01,11,30.00
2008,02,07,01,12,30.10
2008,02,07,01,13,25.90
2008,02,07,01,14,35.70
2008,02,07,01,15,27.80
2008,02,07,01,16,24.60
2008,02,07,01,17,27.60
2008,02,07,01,18,21.90
2008,02,07,01,19,17.90
2008,02,07,01,20,25.30
2008,02,07,01,21,22.70
2008,02,07,01,22,21.60
2008,02,07,01,23,19.20
2008,02,07,01,24,30.40
2008,02,07,01,25,16.50
2008,02,07,01,26,23.50
2008,02,07,01,27,28.60
2008,02,07,01,28,17.40
2008,02,07,01,29,30.10
2008,02,07,01,30,19.60
2008,02,07,01,31,30.30
2008,02,07,01,32,27.00
2008,02,07,01,33,28.70
2008,02,07,01,34,31.00
2008,02,07,01,35,28.20
2008,02,07,01,36,23.20
2008,02,07,01,37,24.60
2008,02,07,01,38,12.70
2008,02,07,01,39,41.30
2008,02,07,01,40,21.80
2008,02,07,01,41,28.60
2008,02,07,01,42,34.30
2008,02,07,01,43,32.90
2008,02,07,01,44,17.60
2008,02,07,01,45,34.40
2008,02,07,01,46,28.10
2008,02,07,01,47,27.10
2008,02,07,01,48,26.10
2008,02,07,01,49,19.10
2008,02,07,01,50,33.40
2008,02,07,01,51,18.30
2008,02,07,01,52,22.40
2008,02,07,01,53,26.30
2008,02,07,01,54,20.10
2008,02,07,01,55,26.50
2008,02,07,01,56,29.90
2008,02,07,01,57,29.50
2008,02,07,01,58,23.20
2008,02,07,01,59,26.90
2008,02,07,02,00,22.30
2008,02,07,02,01,20.20
2008,02,07,02,02,18.80
2008,02,07,02,03,16.70
2008,02,07,02,04,26.80
2008,02,07,02,05,21.70
2008,02,07,02,06,26.00
2008,02,07,02,07,15.30
2008,02,07,02,08,20.30
2008,02,07,02,09,29.90
2008,02,07,02,10,37.60
2008,02,07,02,11,29.60
2008,02,07,02,12,22.30
2008,02,07,02,13,26.10
2008,02,07,02,14,32.30
2008,02,07,02,15,20.30
2008,02,07,02,16,21.70
2008,02,07,02,17,23.40
2008,02,07,02,18,24.80
2008,02,07,02,19,27.50
2008,02,07,02,20,36.60
2008,02,07,02,21,19.70
2008,02,07,02,22,19.20
2008,02,07,02,23,26.00
2008,02,07,02,24,21.00
2008,02,07,02,25,30.80
2008,02,07,02,26,29.50
2008,02,07,02,27,17.90
2008,02,07,02,28,43.50
2008,02,07,02,29,27.60
2008,02,07,02,30,35.00
2008,02,07,02,31,23.10
2008,02,07,02,32,28.80
2008,02,07,02,33,28.70
2008,02,07,02,34,24.60
2008,02,07,02,35,34.30
2008,02,07,02,36,26.20
2008,02,07,02,37,33.10
2008,02,07,02,38,22.30
2008,02,07,02,39,29.40
2008,02,07,02,40,29.40
2008,02,07,02,41,19.30
2008,02,07,02,42,23.20
2008,02,07,02,43,41.40
2008,02,07,02,44,38.50
2008,02,07,02,45,30.40
2008,02,07,02,46,42.30
2008,02,07,02,47,27.40
2008,02,07,02,48,16.90
2008,02,07,02,49,24.10
2008,02,07,02,50,26.70
2008,02,07,02,51,18.90
2008,02,07,02,52,29.20
2008,02,07,02,53,28.70
2008,02,07,02,54,19.20
2008,02,07,02,55,23.20
2008,02,07,02,56,38.90
2008,02,07,02,57,14.80
2008,02,07,02,58,20.00
2008,02,07,02,59,30.00
2008,02,07,03,00,28.30
2008,02,07,03,01,28.00
2008,02,07,03,02,29.30
2008,02,07,03,03,34.30
2008,02,07,03,04,30.60
2008,02,07,03,05,32.50
2008,02,07,03,06,34.90
2008,02,07,03,07,31.70
2008,02,07,03,08,31.40
2008,02,07,03,09,37.70
2008,02,07,03,10,29.10
2008,02,07,03,11,28.40
2008,02,07,03,12,41.50
2008,02,07,03,13,32.30
2008,02,07,03,14,32.80
2008,02,07,03,15,39.50
2008,02,07,03,16,30.80
2008,02,07,03,17,40.80
2008,02,07,03,18,23.10
2008,02,07,03,19,28.60
2008,02,07,03,20,46.60
2008,02,07,03,21,35.30
2008,02,07,03,22,20.30
2008,02,07,03,23,43.90
2008,02,07,03,24,29.10
2008,02,07,03,25,41.70
2008,02,07,03,26,29.80
2008,02,07,03,27,40.20
2008,02,07,03,28,28.90
2008,02,07,03,29,32.20
2008,02,07,03,30,34.90
2008,02,07,03,31,34.50
2008,02,07,03,32,38.90
2008,02,07,03,33,28.10
2008,02,07,03,34,34.00
2008,02,07,03,35,38.60
2008,02,07,03,36,31.90
2008,02,07,03,37,36.00
2008,02,07,03,38,26.10
2008,02,07,03,39,25.90
2008,02,07,03,40,30.00
2008,02,07,03,41,36.60
2008,02,07,03,42,28.60
2008,02,07,03,43,30.60
2008,02,07,03,44,25.00
2008,02,07,03,45,35.10
2008,02,07,03,46,29.90
2008,02,07,03,47,24.10
2008,02,07,03,48,32.90
2008,02,07,03,49,35.90
2008,02,07,03,50,31.30
2008,02,07,03,51,35.70
2008,02,07,03,52,31.00
2008,02,07,03,53,34.30
2008,02,07,03,54,34.00
2008,02,07,03,55,17.90
2008,02,07,03,56,22.50
2008,02,07,03,57,37.50
2008,02,07,03,58,28.70
2008,02,07,03,59,27.30
2008,02,07,04,00,23.60
2008,02,07,04,01,30.30
2008,02,07,04,02,29.00
2008,02,07,04,03,27.90
2008,02,07,04,04,30.80
2008,02,07,04,05,23.30
2008,02,07,04,06,34.60
2008,02,07,04,07,28.10
2008,02,07,04,08,41.80
2008,02,07,04,09,36.20
2008,02,07,04,10,39.10
2008,02,07,04,11,32.50
2008,02,07,04,12,26.30
2008,02,07,04,13,22.40
2008,02,07,04,14,27.60
2008,02,07,04,15,32.90
2008,02,07,04,16,35.00
2008,02,07,04,17,28.50
2008,02,07,04,18,29.10
2008,02,07,04,19,27.10
2008,02,07,04,20,31.90
2008,02,07,04,21,37.80
2008,02,07,04,22,29.30
2008,02,07,04,23,33.30
2008,02,07,04,24,27.90
2008,02,07,04,25,38.50
2008,02,07,04,26,26.40
2008,02,07,04,27,37.40
2008,02,07,04,28,29.30
2008,02,07,04,29,34.50
2008,02,07,04,30,31.50
2008,02,07,04,31,37.90
2008,02,07,04,32,28.00
2008,02,07,04,33,24.20
2008,02,07,04,34,29.20
2008,02,07,04,35,34.00
2008,02,07,04,36,28.30
2008,02,07,04,37,25.10
2008,02,07,04,38,19.50
2008,02,07,04,39,16.60
2008,02,07,04,40,21.10
2008,02,07,04,41,24.10
2008,02,07,04,42,33.60
2008,02,07,04,43,31.40
2008,02,07,04,44,30.90
2008,02,07,04,45,20.70
2008,02,07,04,46,26.10
2008,02,07,04,47,28.10
2008,02,07,04,48,19.80
2008,02,07,04,49,22.50
2008,02,07,04,50,19.50
2008,02,07,04,51,22.60
2008,02,07,04,52,25.60
2008,02,07,04,53,13.40
2008,02,07,04,54,15.70
2008,02,07,04,55,16.60
2008,02,07,04,56,29.90
2008,02,07,04,57,13.50
2008,02,07,04,58,30.40
2008,02,07,04,59,26.90
2008,02,07,05,00,15.70
2008,02,07,05,01,29.00
2008,02,07,05,02,22.60
2008,02,07,05,03,18.40
2008,02,07,05,04,13.10
2008,02,07,05,05,21.40
2008,02,07,05,06,20.90
2008,02,07,05,07,18.30
2008,02,07,05,08,17.10
2008,02,07,05,09,22.60
2008,02,07,05,10,28.60
2008,02,07,05,11,20.60
2008,02,07,05,12,25.40
2008,02,07,05,13,27.40
2008,02,07,05,14,22.80
2008,02,07,05,15,20.30
2008,02,07,05,16,37.70
2008,02,07,05,17,30.30
2008,02,07,05,18,41.00
2008,02,07,05,19,39.90
2008,02,07,05,20,35.70
2008,02,07,05,21,33.20
2008,02,07,05,22,30.80
2008,02,07,05,23,29.40
2008,02,07,05,24,18.90
2008,02,07,05,25,27.80
2008,02,07,05,26,28.00
2008,02,07,05,27,30.80
2008,02,07,05,28,27.90
2008,02,07,05,29,25.00
2008,02,07,05,30,16.70
2008,02,07,05,31,30.70
2008,02,07,05,32,17.20
2008,02,07,05,33,14.90
2008,02,07,05,34,21.50
2008,02,07,05,35,9.90
2008,02,07,05,36,13.70
2008,02,07,05,37,19.20
2008,02,07,05,38,17.70
2008,02,07,05,39,20.70
2008,02,07,05,40,29.70
2008,02,07,05,41,28.70
2008,02,07,05,42,23.60
2008,02,07,05,43,25.60
2008,02,07,05,44,30.30
2008,02,07,05,45,16.30
2008,02,07,05,46,23.20
2008,02,07,05,47,32.00
2008,02,07,05,48,26.00
2008,02,07,05,49,31.80
2008,02,07,05,50,22.90
2008,02,07,05,51,25.50
2008,02,07,05,52,13.90
2008,02,07,05,53,21.70
2008,02,07,05,54,22.60
2008,02,07,05,55,14.20
2008,02,07,05,56,20.10
2008,02,07,05,57,22.90
2008,02,07,05,58,28.50
2008,02,07,05,59,25.80
2008,02,07,06,00,29.80
2008,02,07,06,01,27.20
2008,02,07,06,02,28.20
2008,02,07,06,03,18.40
2008,02,07,06,04,26.80
2008,02,07,06,05,29.90
2008,02,07,06,06,25.00
2008,02,07,06,07,24.60
2008,02,07,06,08,32.70
2008,02,07,06,09,27.90
2008,02,07,06,10,19.00
2008,02,07,06,11,16.80
2008,02,07,06,12,14.30
2008,02,07,06,13,23.80
2008,02,07,06,14,31.30
2008,02,07,06,15,18.30
2008,02,07,06,16,21.80
2008,02,07,06,17,30.00
2008,02,07,06,18,30.40
2008,02,07,06,19,29.20
2008,02,07,06,20,25.00
2008,02,07,06,21,19.50
2008,02,07,06,22,26.40
2008,02,07,06,23,26.20
2008,02,07,06,24,22.10
2008,02,07,06,25,30.70
2008,02,07,06,26,39.20
2008,02,07,06,27,30.70
2008,02,07,06,28,25.20
2008,02,07,06,29,30.20
2008,02,07,06,30,22.60
2008,02,07,06,31,26.50
2008,02,07,06,32,21.10
2008,02,07,06,33,21.80
2008,02,07,06,34,16.30
2008,02,07,06,35,24.30
2008,02,07,06,36,30.40
2008,02,07,06,37,18.00
2008,02,07,06,38,23.50
2008,02,07,06,39,25.10
2008,02,07,06,40,25.60
2008,02,07,06,41,21.60
2008,02,07,06,42,22.20
2008,02,07,06,43,24.20
2008,02,07,06,44,24.80
2008,02,07,06,45,21.70
2008,02,07,06,46,18.80
2008,02,07,06,47,19.00
2008,02,07,06,48,33.20
2008,02,07,06,49,24.80
2008,02,07,06,50,19.50
2008,02,07,06,51,18.80
2008,02,07,06,52,33.00
2008,02,07,06,53,19.50
2008,02,07,06,54,24.00
2008,02,07,06,55,25.50
2008,02,07,06,56,23.70
2008,02,07,06,57,17.60
2008,02,07,06,58,31.60
2008,02,07,06,59,27.40
2008,02,07,07,00,23.60
2008,02,07,07,01,20.70
2008,02,07,07,02,18.80
2008,02,07,07,03,30.60
2008,02,07,07,04,18.70
2008,02,07,07,05,20.50
2008,02,07,07,06,17.40
2008,02,07,07,07,22.60
2008,02,07,07,08,22.90
2008,02,07,07,09,30.00
2008,02,07,07,10,37.40
2008,02,07,07,11,22.10
2008,02,07,07,12,25.80
2008,02,07,07,13,21.80
2008,02,07,07,14,27.20
2008,02,07,07,15,21.20
2008,02,07,07,16,17.60
2008,02,07,07,17,10.70
2008,02,07,07,18,19.10
2008,02,07,07,19,30.50
2008,02,07,07,20,19.10
2008,02,07,07,21,26.10
2008,02,07,07,22,35.80
2008,02,07,07,23,39.10
2008,02,07,07,24,27.40
2008,02,07,07,25,32.30
2008,02,07,07,26,21.70
2008,02,07,07,27,31.70
2008,02,07,07,28,29.70
2008,02,07,07,29,38.60
2008,02,07,07,30,25.30
2008,02,07,07,31,22.10
2008,02,07,07,32,24.30
2008,02,07,07,33,19.60
2008,02,07,07,34,29.50
2008,02,07,07,35,29.00
2008,02,07,07,36,44.70
2008,02,07,07,37,34.90
2008,02,07,07,38,38.20
2008,02,07,07,39,29.00
2008,02,07,07,40,30.50
2008,02,07,07,41,27.00
2008,02,07,07,42,30.70
2008,02,07,07,43,22.70
2008,02,07,07,44,36.10
2008,02,07,07,45,25.30
2008,02,07,07,46,31.20
2008,02,07,07,47,32.90
2008,02,07,07,48,38.70
2008,02,07,07,49,22.60
2008,02,07,07,50,25.50
2008,02,07,07,51,24.60
2008,02,07,07,52,34.00
2008,02,07,07,53,22.00
2008,02,07,07,54,26.20
2008,02,07,07,55,27.30
2008,02,07,07,56,31.10
2008,02,07,07,57,30.70
2008,02,07,07,58,30.30
2008,02,07,07,59,26.60
2008,02,07,08,00,32.80
2008,02,07,08,01,21.80
2008,02,07,08,02,29.50
2008,02,07,08,03,21.20
2008,02,07,08,04,18.90
2008,02,07,08,05,29.40
2008,02,07,08,06,33.30
2008,02,07,08,07,31.10
2008,02,07,08,08,28.60
2008,02,07,08,09,25.80
2008,02,07,08,10,22.20
2008,02,07,08,11,24.20
2008,02,07,08,12,22.50
2008,02,07,08,13,27.20
2008,02,07,08,14,24.60
2008,02,07,08,15,33.30
2008,02,07,08,16,33.00
2008,02,07,08,17,32.30
2008,02,07,08,18,32.70
2008,02,07,08,19,24.00
2008,02,07,08,20,25.20
2008,02,07,08,21,32.10
2008,02,07,08,22,24.40
2008,02,07,08,23,32.50
2008,02,07,08,24,28.50
2008,02,07,08,25,26.00
2008,02,07,08,26,26.50
2008,02,07,08,27,24.70
2008,02,07,08,28,28.90
2008,02,07,08,29,19.30
2008,02,07,08,30,25.00
2008,02,07,08,31,19.60
2008,02,07,08,32,23.90
2008,02,07,08,33,21.90
2008,02,07,08,34,31.50
2008,02,07,08,35,24.10
2008,02,07,08,36,28.40
2008,02,07,08,37,24.30
2008,02,07,08,38,26.70
2008,02,07,08,39,36.60
2008,02,07,08,40,26.60
2008,02,07,08,41,19.70
2008,02,07,08,42,29.90
2008,02,07,08,43,39.60
2008,02,07,08,44,34.40
2008,02,07,08,45,30.00
2008,02,07,08,46,25.50
2008,02,07,08,47,27.60
2008,02,07,08,48,35.10
2008,02,07,08,49,22.20
2008,02,07,08,50,23.70
2008,02,07,08,51,22.40
2008,02,07,08,52,25.60
2008,02,07,08,53,25.60
2008,02,07,08,54,26.40
2008,02,07,08,55,21.00
2008,02,07,08,56,22.10
2008,02,07,08,57,15.60
2008,02,07,08,58,21.40
2008,02,07,08,59,22.60
2008,02,07,09,00,26.20
2008,02,07,09,01,23.20
2008,02,07,09,02,14.80
2008,02,07,09,03,17.60
2008,02,07,09,04,23.10
2008,02,07,09,05,21.40
2008,02,07,09,06,20.40
2008,02,07,09,07,17.40
2008,02,07,09,08,22.70
2008,02,07,09,09,30.20
2008,02,07,09,10,17.80
2008,02,07,09,11,24.50
2008,02,07,09,12,15.60
2008,02,07,09,13,21.10
2008,02,07,09,14,26.60
2008,02,07,09,15,15.00
2008,02,07,09,16,13.80
2008,02,07,09,17,17.90
2008,02,07,09,18,27.00
2008,02,07,09,19,23.00
2008,02,07,09,20,19.70
2008,02,07,09,21,27.60
2008,02,07,09,22,19.60
2008,02,07,09,23,33.40
2008,02,07,09,24,23.00
2008,02,07,09,25,24.10
2008,02,07,09,26,26.90
2008,02,07,09,27,23.00
2008,02,07,09,28,21.10
2008,02,07,09,29,21.70
2008,02,07,09,30,26.70
2008,02,07,09,31,30.50
2008,02,07,09,32,22.60
2008,02,07,09,33,41.40
2008,02,07,09,34,29.90
2008,02,07,09,35,26.30
2008,02,07,09,36,25.60
2008,02,07,09,37,24.10
2008,02,07,09,38,24.90
2008,02,07,09,39,12.20
2008,02,07,09,40,15.20
2008,02,07,09,41,24.10
2008,02,07,09,42,21.90
2008,02,07,09,43,14.70
2008,02,07,09,44,19.00
2008,02,07,09,45,17.70
2008,02,07,09,46,27.30
2008,02,07,09,47,19.50
2008,02,07,09,48,20.00
2008,02,07,09,49,18.50
2008,02,07,09,50,21.70
2008,02,07,09,51,22.30
2008,02,07,09,52,26.00
2008,02,07,09,53,22.40
2008,02,07,09,54,24.60
2008,02,07,09,55,22.40
2008,02,07,09,56,18.50
2008,02,07,09,57,25.70
2008,02,07,09,58,28.20
2008,02,07,09,59,24.10
2008,02,07,10,00,27.40
2008,02,07,10,01,36.50
2008,02,07,10,02,29.10
2008,02,07,10,03,16.30
2008,02,07,10,04,25.60
2008,02,07,10,05,33.20
2008,02,07,10,06,19.60
2008,02,07,10,07,20.90
2008,02,07,10,08,18.80
2008,02,07,10,09,33.20
2008,02,07,10,10,24.10
2008,02,07,10,11,22.10
2008,02,07,10,12,17.90
2008,02,07,10,13,20.60
2008,02,07,10,14,23.70
2008,02,07,10,15,24.50
2008,02,07,10,16,14.80
2008,02,07,10,17,14.20
2008,02,07,10,18,21.10
2008,02,07,10,19,18.30
2008,02,07,10,20,16.30
2008,02,07,10,21,24.40
2008,02,07,10,22,25.30
2008,02,07,10,23,19.90
2008,02,07,10,24,18.30
2008,02,07,10,25,28.40
2008,02,07,10,26,32.00
2008,02,07,10,27,26.00
2008,02,07,10,28,23.20
2008,02,07,10,29,22.70
2008,02,07,10,30,26.50
2008,02,07,10,31,26.70
2008,02,07,10,32,23.30
2008,02,07,10,33,18.40
2008,02,07,10,34,16.90
2008,02,07,10,35,14.90
2008,02,07,10,36,19.80
2008,02,07,10,37,27.50
2008,02,07,10,38,23.90
2008,02,07,10,39,13.10
2008,02,07,10,40,16.70
2008,02,07,10,41,16.20
2008,02,07,10,42,16.70
2008,02,07,10,43,13.00
2008,02,07,10,44,9.60
2008,02,07,10,45,22.30
2008,02,07,10,46,19.60
2008,02,07,10,47,11.40
2008,02,07,10,48,12.90
2008,02,07,10,49,21.10
2008,02,07,10,50,15.00
2008,02,07,10,51,17.70
2008,02,07,10,52,17.30
2008,02,07,10,53,17.00
2008,02,07,10,54,14.30
2008,02,07,10,55,22.70
2008,02,07,10,56,15.60
2008,02,07,10,57,14.90
2008,02,07,10,58,9.10
2008,02,07,10,59,18.80
2008,02,07,11,00,18.60
2008,02,07,11,01,20.70
2008,02,07,11,02,19.30
2008,02,07,11,03,18.50
2008,02,07,11,04,29.90
2008,02,07,11,05,23.80
2008,02,07,11,06,13.70
2008,02,07,11,07,15.80
2008,02,07,11,08,11.50
2008,02,07,11,09,12.00
2008,02,07,11,10,12.10
2008,02,07,11,11,12.20
2008,02,07,11,12,13.80
2008,02,07,11,13,21.40
2008,02,07,11,14,11.10
2008,02,07,11,15,12.50
2008,02,07,11,16,13.70
2008,02,07,11,17,16.00
2008,02,07,11,18,15.80
2008,02,07,11,19,10.60
2008,02,07,11,20,20.80
2008,02,07,11,21,23.40
2008,02,07,11,22,21.90
2008,02,07,11,23,26.00
2008,02,07,11,24,24.90
2008,02,07,11,25,25.90
2008,02,07,11,26,26.00
2008,02,07,11,27,31.60
2008,02,07,11,28,22.90
2008,02,07,11,29,10.90
2008,02,07,11,30,28.70
2008,02,07,11,31,27.10
2008,02,07,11,32,31.20
2008,02,07,11,33,27.20
2008,02,07,11,34,15.20
2008,02,07,11,35,13.00
2008,02,07,11,36,14.80
2008,02,07,11,37,16.30
2008,02,07,11,38,22.50
2008,02,07,11,39,11.80
2008,02,07,11,40,17.80
2008,02,07,11,41,24.70
2008,02,07,11,42,15.40
2008,02,07,11,43,17.80
2008,02,07,11,44,21.80
2008,02,07,11,45,20.20
2008,02,07,11,46,16.70
2008,02,07,11,47,20.60
2008,02,07,11,48,20.00
2008,02,07,11,49,25.10
2008,02,07,11,50,16.90
2008,02,07,11,51,20.30
2008,02,07,11,52,14.00
2008,02,07,11,53,15.20
2008,02,07,11,54,19.40
2008,02,07,11,55,23.30
2008,02,07,11,56,14.00
2008,02,07,11,57,23.00
2008,02,07,11,58,27.40
2008,02,07,11,59,22.90
2008,02,07,12,00,19.20
2008,02,07,12,01,18.40
2008,02,07,12,02,27.70
2008,02,07,12,03,27.70
2008,02,07,12,04,23.30
2008,02,07,12,05,31.80
2008,02,07,12,06,27.90
2008,02,07,12,07,30.90
2008,02,07,12,08,28.60
2008,02,07,12,09,22.90
2008,02,07,12,10,16.10
2008,02,07,12,11,28.60
2008,02,07,12,12,21.70
2008,02,07,12,13,25.60
2008,02,07,12,14,19.20
2008,02,07,12,15,22.80
2008,02,07,12,16,28.00
2008,02,07,12,17,26.80
2008,02,07,12,18,25.30
2008,02,07,12,19,29.30
2008,02,07,12,20,32.10
2008,02,07,12,21,19.20
2008,02,07,12,22,18.50
2008,02,07,12,23,30.30
2008,02,07,12,24,40.30
2008,02,07,12,25,26.80
2008,02,07,12,26,20.90
2008,02,07,12,27,17.60
2008,02,07,12,28,27.00
2008,02,07,12,29,35.90
2008,02,07,12,30,20.80
2008,02,07,12,31,24.60
2008,02,07,12,32,26.40
2008,02,07,12,33,23.20
2008,02,07,12,34,33.70
2008,02,07,12,35,19.70
2008,02,07,12,36,27.10
2008,02,07,12,37,30.10
2008,02,07,12,38,22.30
2008,02,07,12,39,20.80
2008,02,07,12,40,23.00
2008,02,07,12,41,14.40
2008,02,07,12,42,19.50
2008,02,07,12,43,17.80
2008,02,07,12,44,9.80
2008,02,07,12,45,15.30
2008,02,07,12,46,20.90
2008,02,07,12,47,18.40
2008,02,07,12,48,16.60
2008,02,07,12,49,21.60
2008,02,07,12,50,27.80
2008,02,07,12,51,30.10
2008,02,07,12,52,28.70
2008,02,07,12,53,18.20
2008,02,07,12,54,14.80
2008,02,07,12,55,18.40
2008,02,07,12,56,23.20
2008,02,07,12,57,20.90
2008,02,07,12,58,17.70
2008,02,07,12,59,19.20
2008,02,07,13,00,20.10
2008,02,07,13,01,21.20
2008,02,07,13,02,18.60
2008,02,07,13,03,13.30
2008,02,07,13,04,18.90
2008,02,07,13,05,15.70
2008,02,07,13,06,25.20
2008,02,07,13,07,13.90
2008,02,07,13,08,20.50
2008,02,07,13,09,17.60
2008,02,07,13,10,16.80
2008,02,07,13,11,22.20
2008,02,07,13,12,17.30
2008,02,07,13,13,25.50
2008,02,07,13,14,17.90
2008,02,07,13,15,22.50
2008,02,07,13,16,15.50
2008,02,07,13,17,19.10
2008,02,07,13,18,13.60
2008,02,07,13,19,15.60
2008,02,07,13,20,19.10
2008,02,07,13,21,29.00
2008,02,07,13,22,28.20
2008,02,07,13,23,20.10
2008,02,07,13,24,29.40
2008,02,07,13,25,29.30
2008,02,07,13,26,31.50
2008,02,07,13,27,21.90
2008,02,07,13,28,23.00
2008,02,07,13,29,19.50
2008,02,07,13,30,30.70
2008,02,07,13,31,27.10
2008,02,07,13,32,29.50
2008,02,07,13,33,26.30
2008,02,07,13,34,23.30
2008,02,07,13,35,21.70
2008,02,07,13,36,27.90
2008,02,07,13,37,26.30
2008,02,07,13,38,27.10
2008,02,07,13,39,23.50
2008,02,07,13,40,30.20
2008,02,07,13,41,20.70
2008,02,07,13,42,16.00
2008,02,07,13,43,20.00
2008,02,07,13,44,10.70
2008,02,07,13,45,25.90
2008,02,07,13,46,17.90
2008,02,07,13,47,18.90
2008,02,07,13,48,15.60
2008,02,07,13,49,15.80
2008,02,07,13,50,12.70
2008,02,07,13,51,15.00
2008,02,07,13,52,21.50
2008,02,07,13,53,17.90
2008,02,07,13,54,18.70
2008,02,07,13,55,16.20
2008,02,07,13,56,27.20
2008,02,07,13,57,18.60
2008,02,07,13,58,24.40
2008,02,07,13,59,21.50
2008,02,07,14,00,23.70
2008,02,07,14,01,15.40
2008,02,07,14,02,16.30
2008,02,07,14,03,14.80
2008,02,07,14,04,21.70
2008,02,07,14,05,18.70
2008,02,07,14,06,23.70
2008,02,07,14,07,29.50
2008,02,07,14,08,20.10
2008,02,07,14,09,21.20
2008,02,07,14,10,18.80
2008,02,07,14,11,20.40
2008,02,07,14,12,23.90
2008,02,07,14,13,19.20
2008,02,07,14,14,23.40
2008,02,07,14,15,18.50
2008,02,07,14,16,21.30
2008,02,07,14,17,15.40
2008,02,07,14,18,14.60
2008,02,07,14,19,17.30
2008,02,07,14,20,14.10
2008,02,07,14,21,17.20
2008,02,07,14,22,28.90
2008,02,07,14,23,22.90
2008,02,07,14,24,20.40
2008,02,07,14,25,29.30
2008,02,07,14,26,24.00
2008,02,07,14,27,31.00
2008,02,07,14,28,27.70
2008,02,07,14,29,22.10
2008,02,07,14,30,37.30
2008,02,07,14,31,27.30
2008,02,07,14,32,22.40
2008,02,07,14,33,20.40
2008,02,07,14,34,20.30
2008,02,07,14,35,25.50
2008,02,07,14,36,21.60
2008,02,07,14,37,18.70
2008,02,07,14,38,13.20
2008,02,07,14,39,16.40
2008,02,07,14,40,14.20
2008,02,07,14,41,16.30
2008,02,07,14,42,11.50
2008,02,07,14,43,16.30
2008,02,07,14,44,30.10
2008,02,07,14,45,26.50
2008,02,07,14,46,31.50
2008,02,07,14,47,24.90
2008,02,07,14,48,27.10
2008,02,07,14,49,19.20
2008,02,07,14,50,17.40
2008,02,07,14,51,31.40
2008,02,07,14,52,25.50
2008,02,07,14,53,33.00
2008,02,07,14,54,29.00
2008,02,07,14,55,30.30
2008,02,07,14,56,30.60
2008,02,07,14,57,23.00
2008,02,07,14,58,16.50
2008,02,07,14,59,22.90
2008,02,07,15,00,28.50
2008,02,07,15,01,17.40
2008,02,07,15,02,17.50
2008,02,07,15,03,19.40
2008,02,07,15,04,28.20
2008,02,07,15,05,28.90
2008,02,07,15,06,25.80
2008,02,07,15,07,24.50
2008,02,07,15,08,30.30
2008,02,07,15,09,25.20
2008,02,07,15,10,14.40
2008,02,07,15,11,27.30
2008,02,07,15,12,26.00
2008,02,07,15,13,23.20
2008,02,07,15,14,29.70
2008,02,07,15,15,24.40
2008,02,07,15,16,27.00
2008,02,07,15,17,29.20
2008,02,07,15,18,27.00
2008,02,07,15,19,22.50
2008,02,07,15,20,14.60
2008,02,07,15,21,15.40
2008,02,07,15,22,18.70
2008,02,07,15,23,20.60
2008,02,07,15,24,14.80
2008,02,07,15,25,29.90
2008,02,07,15,26,23.50
2008,02,07,15,27,22.70
2008,02,07,15,28,31.50
2008,02,07,15,29,23.30
2008,02,07,15,30,19.80
2008,02,07,15,31,24.70
2008,02,07,15,32,29.80
2008,02,07,15,33,31.40
2008,02,07,15,34,22.10
2008,02,07,15,35,17.50
2008,02,07,15,36,23.10
2008,02,07,15,37,24.10
2008,02,07,15,38,24.30
2008,02,07,15,39,20.40
2008,02,07,15,40,24.70
2008,02,07,15,41,28.40
2008,02,07,15,42,16.60
2008,02,07,15,43,21.50
2008,02,07,15,44,14.70
2008,02,07,15,45,20.20
2008,02,07,15,46,19.20
2008,02,07,15,47,13.70
2008,02,07,15,48,29.10
2008,02,07,15,49,22.50
2008,02,07,15,50,18.60
2008,02,07,15,51,16.40
2008,02,07,15,52,16.60
2008,02,07,15,53,23.20
2008,02,07,15,54,22.60
2008,02,07,15,55,17.20
2008,02,07,15,56,21.90
2008,02,07,15,57,18.10
2008,02,07,15,58,22.60
2008,02,07,15,59,16.30
2008,02,07,16,00,14.10
2008,02,07,16,01,21.20
2008,02,07,16,02,21.20
2008,02,07,16,03,29.40
2008,02,07,16,04,27.30
2008,02,07,16,05,26.10
2008,02,07,16,06,19.50
2008,02,07,16,07,23.40
2008,02,07,16,08,25.40
2008,02,07,16,09,22.70
2008,02,07,16,10,23.70
2008,02,07,16,11,23.90
2008,02,07,16,12,21.90
2008,02,07,16,13,22.70
2008,02,07,16,14,19.70
2008,02,07,16,15,19.20
2008,02,07,16,16,12.30
2008,02,07,16,17,14.50
2008,02,07,16,18,17.60
2008,02,07,16,19,20.60
2008,02,07,16,20,10.70
2008,02,07,16,21,17.00
2008,02,07,16,22,23.30
2008,02,07,16,23,20.80
2008,02,07,16,24,24.90
2008,02,07,16,25,26.30
2008,02,07,16,26,18.60
2008,02,07,16,27,19.60
2008,02,07,16,28,21.60
2008,02,07,16,29,28.00
2008,02,07,16,30,29.00
2008,02,07,16,31,25.90
2008,02,07,16,32,21.40
2008,02,07,16,33,22.50
2008,02,07,16,34,18.80
2008,02,07,16,35,22.60
2008,02,07,16,36,25.50
2008,02,07,16,37,22.80
2008,02,07,16,38,17.30
2008,02,07,16,39,20.30
2008,02,07,16,40,22.60
2008,02,07,16,41,15.80
2008,02,07,16,42,19.20
2008,02,07,16,43,23.00
2008,02,07,16,44,31.00
2008,02,07,16,45,21.00
2008,02,07,16,46,22.60
2008,02,07,16,47,26.60
2008,02,07,16,48,21.10
2008,02,07,16,49,19.10
2008,02,07,16,50,17.40
2008,02,07,16,51,14.80
2008,02,07,16,52,31.10
2008,02,07,16,53,19.20
2008,02,07,16,54,16.90
2008,02,07,16,55,11.50
2008,02,07,16,56,16.10
2008,02,07,16,57,25.90
2008,02,07,16,58,22.20
2008,02,07,16,59,24.30
2008,02,07,17,00,16.60
2008,02,07,17,01,24.90
2008,02,07,17,02,17.40
2008,02,07,17,03,18.10
2008,02,07,17,04,11.20
2008,02,07,17,05,17.30
2008,02,07,17,06,20.10
2008,02,07,17,07,22.10
2008,02,07,17,08,14.80
2008,02,07,17,09,10.30
2008,02,07,17,10,21.80
2008,02,07,17,11,20.10
2008,02,07,17,12,20.10
2008,02,07,17,13,16.70
2008,02,07,17,14,16.50
2008,02,07,17,15,18.70
2008,02,07,17,16,7.20
2008,02,07,17,17,17.70
2008,02,07,17,18,12.00
2008,02,07,17,19,19.00
2008,02,07,17,20,15.30
2008,02,07,17,21,19.00